Location: Riverside
(39.1734°N, 77.8561°W)
Time: 08:49:22
(UTC+00:00)

BEESAT - Visible Passes

Search period start: 19 May 2019 00:00
Search period end: 29 May 2019 00:00
Orbit: 701 x 708 km, 98.6° (Epoch: 18 May)

Date Brightness Start Highest point End Pass type
(mag) Time Alt. Az. Time Alt. Az. Time Alt. Az.
19 May ? 08:59:21 10° SSE 09:04:02 60° ENE 09:08:45 10° N visible
20 May ? 08:06:59 10° ESE 08:10:09 18° ENE 08:13:21 10° NNE visible
21 May ? 08:48:45 10° SE 08:53:17 46° ENE 08:57:52 10° N visible
22 May ? 07:57:04 10° E 07:59:31 14° ENE 08:01:59 10° NNE visible
23 May ? 08:38:15 10° SE 08:42:35 36° ENE 08:46:56 10° N visible
24 May ? 07:47:39 10° ENE 07:48:54 11° ENE 07:50:08 10° NE visible
24 May ? 09:21:09 10° SSE 09:25:55 83° WSW 09:30:44 10° NNW visible
25 May ? 08:27:50 10° SE 08:31:53 28° ENE 08:35:56 10° N visible
26 May ? 09:10:24 10° SSE 09:15:09 77° ENE 09:19:57 10° N visible
27 May ? 08:17:34 10° ESE 08:21:12 22° ENE 08:24:52 10° NNE visible
28 May ? 08:59:43 10° SSE 09:04:24 58° ENE 09:09:07 10° N visible
